[[{"header":{"parameterUnit":"m.s-1","parameterCategory":1,"la1":30.2991,"la2":30.254,"lo1":-89.0895,"lo2":-89.0444,"dy":0.0017,"dx":0.0017,"nx":28,"ny":28,"refTime":"2024-10-17T09:00:00:Z","depth":0,"parameterNumber":2,"parameterNumberName":"U-component_of_WINDS"},"data":[0,0,0,0,0,0,0,0,0,0,0,0,0,0,0,0,0,0,0,0,0,0,0,0,0,0,0,0,0,0,0,0,0,0,0,0,0,0,0,0,0,0,0,0,0,0,0,0,0,0,0,0,0,0,0,0,0,0,-3.6942,-3.6943,0,-3.7004,-3.7005,-3.7005,-3.6905,-3.6902,-3.6898,-3.6895,-3.6956,-3.696,-3.6965,0,0,0,0,0,0,0,0,0,0,0,0,0,-3.6733,-3.6737,-3.6942,-3.6943,-3.6944,-3.7004,-3.7005,-3.7006,-3.6906,-3.6902,-3.6897,-3.6893,-3.6954,-3.696,-3.6965,0,0,0,0,0,0,0,0,0,0,0,0,0,-3.6812,-3.6739,-3.6942,-3.6901,-3.6898,-3.7004,-3.7005,-3.7006,-3.6907,-3.6901,-3.6896,-3.6891,-3.6952,-3.6959,-3.6966,-3.7114,0,0,-3.6988,-3.6991,0,0,0,0,0,0,0,0,-3.6808,-3.682,-3.6906,-3.6904,-3.6901,-3.6942,-3.6953,-3.7042,-3.6908,-3.6903,-3.6895,-3.6889,-3.6955,-3.6962,-3.6984,-3.7117,-3.7119,-3.6989,-3.6993,-3.6996,-3.6998,0,0,0,0,0,0,0,-3.6803,-3.6817,-3.6966,-3.6908,-3.6905,-3.6878,-3.6884,-3.697,-3.6957,-3.6903,-3.6896,-3.6905,-3.6952,-3.6978,-3.6985,-3.712,-3.6989,-3.6995,-3.7,-3.7002,-3.7373,-3.7378,0,0,0,0,0,0,-3.6803,-3.6813,-3.6965,-3.6968,-3.6841,-3.6886,-3.6893,-3.6934,-3.6956,-3.6954,-3.6909,-3.69,-3.6968,-3.6977,-3.6987,-3.7158,-3.6996,-3.7003,-3.7007,-3.7367,-3.7374,-3.738,0,0,0,0,0,0,-3.6799,-3.6817,-3.6962,-3.6889,-3.6905,-3.6895,-3.6943,-3.6938,-3.6963,-3.6961,-3.6957,-3.6938,-3.6964,-3.6977,-3.7082,-3.7159,-3.7006,-3.7013,-3.7361,-3.7369,-3.7377,-3.7504,0,0,0,0,0,0,-3.6793,-3.6816,-3.6873,-3.6891,-3.691,-3.7058,-3.6947,-3.6943,-3.6976,-3.6964,-3.6986,-3.6985,-3.6961,-3.7072,-3.7089,-3.7166,-3.7018,-3.7354,-3.7365,-3.7374,-3.7493,-3.7515,-3.7535,0,0,0,0,0,-3.6786,-3.6907,-3.6877,-3.6896,-3.6981,-3.7063,-3.7073,-3.7044,-3.6983,-3.7039,-3.7037,-3.6984,-3.7148,-3.7084,-3.7102,-3.7182,-3.7349,-3.7361,-3.7373,-3.7483,-3.7511,-3.7534,0,0,0,0,0,0,-3.6898,-3.6908,-3.6875,-3.7006,-3.7034,-3.7046,-3.7116,-3.7075,-3.7121,-3.7108,-3.7069,-3.7075,-3.7188,-3.7196,-3.7124,-3.7325,-3.7238,-3.7255,-3.7315,-3.7341,-3.7362,-3.7356,-3.7024,0,0,0,0,0,-3.6938,-3.7005,-3.701,-3.7125,-3.7141,-3.7126,-3.7161,-3.7136,-3.7163,-3.7175,-3.7181,-3.7209,-3.7266,-3.7304,-3.7357,-3.7494,-3.7496,-3.7558,-3.7579,-3.7597,-3.7611,-3.768,-3.7707,-3.7421,-3.742,-3.742,0,0,-3.7021,-3.7035,-3.708,-3.7147,-3.7166,-3.7235,-3.7137,-3.7214,-3.7263,-3.7186,-3.7285,-3.7291,-3.7319,-3.7441,-3.7494,-3.7451,-3.7691,-3.7612,-3.7626,-3.7631,-3.7696,-3.7723,-3.7747,-3.7429,-3.7427,-3.7426,0,0,-3.7206,-3.7225,-3.7321,-3.7342,-3.7373,-3.7362,-3.7385,-3.7403,-3.7404,-3.7503,-3.7446,-3.7504,-3.7605,-3.7626,-3.765,-3.7843,-3.7795,-3.7861,-3.797,-3.8039,-3.8061,-3.8081,-3.8147,-3.8171,-3.7876,-3.7876,-3.7876,0,-3.7305,-3.7407,-3.7375,-3.7456,-3.7486,-3.742,-3.7515,-3.7537,-3.7583,-3.7605,-3.7556,-3.7679,-3.7694,-3.7817,-3.7864,-3.7887,-3.791,-3.7857,-3.8061,-3.808,-3.8098,-3.816,-3.8185,-3.7884,-3.7883,-3.7882,-3.7881,0,-3.7525,-3.7597,-3.7671,-3.7717,-3.7755,-3.7843,-3.7823,-3.7866,-3.7838,-3.7832,-3.7932,-3.7948,-3.8001,-3.8029,-3.8003,-3.8149,-3.812,-3.8068,-3.7979,-3.8134,-3.8191,-3.8215,-3.7895,-3.7892,-3.789,-3.7888,0,0,-3.7782,-3.7809,-3.7836,-3.7855,-3.7884,-3.7937,-3.8021,-3.8074,-3.811,-3.8144,-3.8211,-3.8298,-3.8248,-3.8275,-3.8251,-3.8311,-3.8459,-3.825,-3.825,-3.8285,-3.8617,-3.8655,-3.8683,-3.8428,-3.8433,-3.8436,-3.8613,0,-3.7964,-3.8109,-3.8083,-3.8223,-3.8287,-3.8225,-3.8297,-3.8322,-3.8318,-3.8371,-3.8367,-3.8427,-3.8359,-3.8374,-3.8432,-3.8429,-3.8524,-3.8416,-3.8488,-3.8491,-3.848,-3.8714,-3.8754,-3.8921,-3.8636,-3.864,-3.8643,0,-3.8196,-3.8238,-3.8385,-3.8401,-3.8427,-3.8493,-3.8537,-3.859,-3.8615,-3.8608,-3.8639,-3.8602,-3.8683,-3.8596,-3.8705,-3.8632,-3.866,-3.8663,-3.8669,-3.8672,-3.8574,-3.872,-3.8973,-3.8997,-3.8678,-3.8676,-3.8673,0,-3.8364,-3.8458,-3.8557,-3.8576,-3.8598,-3.8645,-3.8656,-3.8677,-3.871,-3.8749,-3.8769,-3.8818,-3.8843,-3.8881,-3.8857,-3.8797,-3.897,-3.8882,-3.8964,-3.8965,-3.9001,-3.8999,-3.926,-3.9025,-3.9025,-3.9024,-3.9024,0,-3.8568,-3.866,-3.8633,-3.8694,-3.8794,-3.8762,-3.8861,-3.8865,-3.8883,-3.8942,-3.8892,-3.8948,-3.8915,-3.8968,-3.8951,-3.9042,-3.9055,-3.905,-3.9044,-3.9053,-3.9053,-3.9068,-3.9055,-3.9031,-3.9029,-3.9028,-3.9027,0,-3.8772,-3.8759,-3.8862,-3.8874,-3.8879,-3.8952,-3.8962,-3.9017,-3.901,-3.9085,-3.9101,-3.909,-3.9149,-3.913,-3.9195,-3.9182,-3.9298,-3.9278,-3.9289,-3.9283,-3.9366,-3.9357,-3.9643,-3.9678,-3.9424,-3.9427,-3.9429,0,-3.8902,-3.8971,-3.899,-3.9027,-3.9041,-3.9101,-3.9133,-3.9105,-3.9141,-3.9174,-3.9225,-3.9281,-3.9323,-3.9421,-3.9417,-3.9466,-3.9445,-3.9542,-3.9451,-3.9458,-3.9442,-3.9437,-3.9442,-3.9559,-3.9562,-3.9564,-3.9566,0,-3.9133,-3.9122,-3.9172,-3.922,-3.926,-3.9296,-3.9327,-3.9359,-3.9332,-3.9375,-3.9436,-3.9469,-3.9534,-3.9588,-3.9632,-3.9641,-3.9599,-3.9595,-3.9616,-3.9624,-3.9626,-3.9623,-3.9335,-3.9588,-3.9585,-3.9584,-3.9583,-3.9582,-3.9301,-3.9358,-3.938,-3.9437,-3.9457,-3.9487,-3.9539,-3.9539,-3.9589,-3.964,-3.962,-3.9689,-3.971,-3.9764,-3.978,-3.9832,-3.9794,-3.9826,-3.9833,-3.9841,-3.985,-3.9621,-3.984,-3.984,-3.9839,-3.9839,-3.9838,0,-3.9526,-3.9537,-3.959,-3.9634,-3.9679,-3.9636,-3.9668,-3.9707,-3.9768,-3.9793,-3.9835,-3.9904,-3.9956,-3.9957,-4.0005,-4.0047,-4.0028,-4.006,-4.0055,-4.0057,-3.9882,-3.9858,-4.0074,-4.0074,-4.0074,-4.0074,-4.0074,-4.0074,-3.9648,-3.9741,-3.9733,-3.9836,-3.9845,-3.9913,-3.9934,-3.9961,-3.9979,-4.0058,-4.0102,-4.0102,-4.0116,-4.0165,-4.021,-4.0209,-4.0227,-4.0266,-4.0258,-4.0093,-4.007,-4.0047,-4.0024,-4.0272,-4.0272,-4.0427,-4.0429,-4.043]},{"header":{"parameterUnit":"m.s-1","parameterCategory":1,"la1":30.2991,"la2":30.254,"lo1":-89.0895,"lo2":-89.0444,"dy":0.0017,"dx":0.0017,"nx":28,"ny":28,"refTime":"2024-10-17T09:00:00:Z","depth":0,"parameterNumber":3,"parameterNumberName":"V-component_of_WINDS"},"data":[0,0,0,0,0,0,0,0,0,0,0,0,0,0,0,0,0,0,0,0,0,0,0,0,0,0,0,0,0,0,0,0,0,0,0,0,0,0,0,0,0,0,0,0,0,0,0,0,0,0,0,0,0,0,0,0,0,0,-2.5667,-2.5667,0,-2.573,-2.573,-2.5731,-2.5724,-2.5723,-2.5722,-2.5721,-2.5783,-2.5786,-2.5788,0,0,0,0,0,0,0,0,0,0,0,0,0,-2.5536,-2.5538,-2.5666,-2.5667,-2.5668,-2.573,-2.573,-2.5731,-2.5724,-2.5723,-2.5721,-2.572,-2.5782,-2.5785,-2.5788,0,0,0,0,0,0,0,0,0,0,0,0,0,-2.5595,-2.5539,-2.5666,-2.5672,-2.5673,-2.5729,-2.5731,-2.5732,-2.5724,-2.5722,-2.5721,-2.572,-2.5781,-2.5785,-2.5789,-2.5843,0,0,-2.5801,-2.5802,0,0,0,0,0,0,0,0,-2.5592,-2.56,-2.567,-2.5672,-2.5673,-2.5717,-2.5707,-2.5769,-2.5724,-2.5705,-2.5721,-2.5719,-2.5762,-2.5768,-2.5783,-2.5846,-2.5849,-2.5801,-2.5803,-2.5805,-2.5806,0,0,0,0,0,0,0,-2.5588,-2.5597,-2.5691,-2.5671,-2.5673,-2.567,-2.5677,-2.5719,-2.5741,-2.5706,-2.5706,-2.5713,-2.5763,-2.5779,-2.5784,-2.585,-2.5801,-2.5804,-2.5807,-2.5808,-2.5959,-2.5961,0,0,0,0,0,0,-2.5583,-2.5594,-2.5689,-2.5693,-2.5628,-2.5674,-2.5681,-2.5705,-2.5741,-2.5745,-2.5715,-2.5713,-2.5773,-2.578,-2.5786,-2.5851,-2.5805,-2.5809,-2.5811,-2.5958,-2.596,-2.5961,0,0,0,0,0,0,-2.558,-2.5591,-2.5687,-2.5644,-2.5655,-2.5677,-2.5704,-2.5707,-2.5723,-2.5747,-2.5751,-2.5728,-2.5772,-2.5781,-2.5829,-2.5853,-2.5811,-2.5814,-2.5956,-2.5958,-2.5961,-2.5982,0,0,0,0,0,0,-2.5576,-2.559,-2.5612,-2.5644,-2.5658,-2.5729,-2.5705,-2.5709,-2.573,-2.5728,-2.576,-2.5764,-2.5772,-2.5823,-2.5833,-2.5858,-2.5817,-2.5954,-2.5957,-2.596,-2.5979,-2.5985,-2.599,0,0,0,0,0,-2.5572,-2.5615,-2.5613,-2.5625,-2.5686,-2.5731,-2.5739,-2.5747,-2.5732,-2.5753,-2.5769,-2.5763,-2.5849,-2.5828,-2.5839,-2.5865,-2.5952,-2.5956,-2.5959,-2.5977,-2.5984,-2.5989,0,0,0,0,0,0,-2.5585,-2.562,-2.5618,-2.5674,-2.5699,-2.573,-2.5757,-2.5755,-2.5785,-2.5782,-2.5791,-2.5798,-2.5846,-2.5861,-2.5837,-2.5919,-2.5898,-2.5904,-2.5908,-2.5914,-2.592,-2.5914,-2.582,0,0,0,0,0,-2.5595,-2.563,-2.5658,-2.5704,-2.5717,-2.5735,-2.5755,-2.5759,-2.5786,-2.5797,-2.5816,-2.5841,-2.5874,-2.5895,-2.5927,-2.5981,-2.5987,-2.6005,-2.601,-2.6014,-2.6019,-2.6047,-2.6055,-2.5974,-2.5974,-2.5974,0,0,-2.5615,-2.5638,-2.5659,-2.5707,-2.5728,-2.5762,-2.5744,-2.5782,-2.5807,-2.5802,-2.5849,-2.5863,-2.5892,-2.5943,-2.5967,-2.5957,-2.6043,-2.6019,-2.6022,-2.6025,-2.6052,-2.6059,-2.6066,-2.5976,-2.5976,-2.5975,0,0,-2.5668,-2.569,-2.573,-2.5751,-2.5783,-2.5794,-2.5804,-2.5834,-2.5844,-2.5891,-2.5888,-2.5917,-2.5974,-2.5994,-2.6012,-2.6072,-2.6067,-2.6082,-2.611,-2.6137,-2.6143,-2.6149,-2.6169,-2.6176,-2.6087,-2.6087,-2.6087,0,-2.5689,-2.5742,-2.5751,-2.5789,-2.5809,-2.5807,-2.5847,-2.5867,-2.5907,-2.592,-2.5909,-2.5979,-2.5999,-2.6054,-2.6068,-2.6084,-2.6093,-2.6078,-2.6142,-2.6148,-2.6153,-2.6172,-2.618,-2.6089,-2.6089,-2.6089,-2.6088,0,-2.5764,-2.5801,-2.5829,-2.5868,-2.5892,-2.5931,-2.5945,-2.5968,-2.597,-2.5982,-2.6029,-2.6052,-2.6088,-2.6101,-2.6104,-2.6156,-2.6149,-2.614,-2.6119,-2.6162,-2.618,-2.6187,-2.6091,-2.609,-2.609,-2.609,0,0,-2.5828,-2.5871,-2.5881,-2.5898,-2.5933,-2.596,-2.5998,-2.6034,-2.6052,-2.608,-2.6111,-2.6158,-2.615,-2.617,-2.6174,-2.6199,-2.6243,-2.6186,-2.6187,-2.6195,-2.63,-2.6306,-2.6314,-2.6241,-2.6242,-2.6243,-2.6297,0,-2.5883,-2.5951,-2.5961,-2.602,-2.6053,-2.6051,-2.6084,-2.6108,-2.612,-2.6149,-2.6162,-2.6195,-2.6182,-2.6194,-2.6218,-2.6232,-2.6264,-2.6229,-2.6268,-2.6269,-2.6259,-2.6324,-2.633,-2.638,-2.6304,-2.6306,-2.6307,0,-2.5957,-2.5987,-2.605,-2.6078,-2.6092,-2.6122,-2.6154,-2.6183,-2.6209,-2.6216,-2.6238,-2.624,-2.6278,-2.6256,-2.6307,-2.6283,-2.63,-2.6309,-2.6311,-2.6314,-2.6289,-2.6327,-2.6397,-2.6403,-2.6318,-2.6317,-2.6316,0,-2.5995,-2.6051,-2.6095,-2.611,-2.6145,-2.6165,-2.6181,-2.6206,-2.6226,-2.6254,-2.6267,-2.6299,-2.6316,-2.634,-2.635,-2.6334,-2.64,-2.638,-2.6406,-2.6405,-2.6419,-2.6417,-2.649,-2.6432,-2.6432,-2.6432,-2.6432,0,-2.6055,-2.6093,-2.6112,-2.614,-2.6182,-2.6192,-2.6233,-2.6247,-2.6269,-2.6298,-2.6299,-2.6326,-2.6338,-2.6366,-2.6374,-2.6414,-2.6423,-2.6428,-2.643,-2.6427,-2.6426,-2.6437,-2.6433,-2.6434,-2.6433,-2.6433,-2.6433,0,-2.6104,-2.6119,-2.6167,-2.6196,-2.6204,-2.6233,-2.6258,-2.6283,-2.6295,-2.6332,-2.6341,-2.6359,-2.6393,-2.6405,-2.6446,-2.6451,-2.6497,-2.6497,-2.6488,-2.6488,-2.6513,-2.651,-2.6594,-2.6605,-2.6541,-2.6542,-2.6542,0,-2.6141,-2.617,-2.6202,-2.6222,-2.6238,-2.627,-2.629,-2.6301,-2.6322,-2.6354,-2.6375,-2.6409,-2.6436,-2.649,-2.6506,-2.6537,-2.6536,-2.6563,-2.654,-2.6537,-2.6534,-2.6532,-2.6534,-2.6567,-2.6567,-2.6568,-2.6568,0,-2.6203,-2.6209,-2.6239,-2.6271,-2.6296,-2.6322,-2.6347,-2.6363,-2.6377,-2.6401,-2.6435,-2.6456,-2.6498,-2.653,-2.6562,-2.6576,-2.6574,-2.6576,-2.6583,-2.658,-2.6574,-2.6576,-2.6498,-2.6573,-2.6573,-2.6573,-2.6572,-2.6572,-2.6246,-2.6271,-2.6298,-2.6331,-2.6351,-2.6374,-2.6399,-2.6414,-2.6443,-2.6478,-2.6483,-2.6519,-2.6544,-2.6586,-2.6602,-2.663,-2.6622,-2.6633,-2.6636,-2.6638,-2.6639,-2.6571,-2.6636,-2.6636,-2.6636,-2.6636,-2.6636,0,-2.6307,-2.6324,-2.6355,-2.639,-2.6415,-2.6412,-2.644,-2.6461,-2.6493,-2.6517,-2.6543,-2.6582,-2.6614,-2.6633,-2.6664,-2.6683,-2.6682,-2.669,-2.6688,-2.6691,-2.6645,-2.6635,-2.669,-2.669,-2.669,-2.669,-2.669,-2.669,-2.6342,-2.6384,-2.6393,-2.6445,-2.6461,-2.6497,-2.6513,-2.6534,-2.6552,-2.6596,-2.6622,-2.6635,-2.6656,-2.6688,-2.6717,-2.6721,-2.6732,-2.6741,-2.6744,-2.67,-2.6695,-2.6689,-2.668,-2.6743,-2.6743,-2.6788,-2.6788,-2.6789]}]]